EZY46PJ EGNS-EGCC

Flight info

Callsign EZY46PJ
Flight time 0h 27m
Altitude 15000
Route TIMIS Q39 DANDI L28 PENIL
Aircraft A20N/M-SDE2E3FGHIJ1RWXY/LB1

Departure

Time 2026-04-25 18:07
Airport Isle of Man Airport (EGNS)

Arrival

Time 2026-04-25 18:34
Airport Manchester Airport (EGCC)
Time Latitude Longitude Altitude Speed Heading
2026-04-25 17:32 54.08585 -4.63322 9 ft 0 kts 43°
2026-04-25 17:50 54.08582 -4.63327 8 ft 2 kts 43°
2026-04-25 17:51 54.08571 -4.63345 8 ft 2 kts 43°
2026-04-25 17:51 54.08560 -4.63362 8 ft 2 kts 43°
2026-04-25 17:51 54.08553 -4.63375 8 ft 1 kts 80°
2026-04-25 17:51 54.08555 -4.63388 8 ft 1 kts 132°
2026-04-25 17:52 54.08560 -4.63397 8 ft 0 kts 133°
2026-04-25 17:55 54.08559 -4.63395 8 ft 0 kts 133°
2026-04-25 17:55 54.08553 -4.63382 8 ft 2 kts 130°
2026-04-25 17:55 54.08538 -4.63356 8 ft 3 kts 132°
2026-04-25 17:56 54.08514 -4.63332 8 ft 4 kts 184°
2026-04-25 17:56 54.08478 -4.63354 8 ft 6 kts 186°
2026-04-25 17:56 54.08441 -4.63313 8 ft 7 kts 121°
2026-04-25 17:56 54.08417 -4.63227 8 ft 8 kts 116°
2026-04-25 17:57 54.08398 -4.63124 8 ft 10 kts 83°
2026-04-25 17:57 54.08414 -4.63000 8 ft 11 kts 77°
2026-04-25 17:57 54.08432 -4.62864 8 ft 12 kts 78°
2026-04-25 17:57 54.08438 -4.62816 8 ft 12 kts 78°
2026-04-25 17:58 54.08470 -4.62558 8 ft 14 kts 76°
2026-04-25 17:58 54.08492 -4.62392 8 ft 14 kts 78°
2026-04-25 17:58 54.08512 -4.62220 8 ft 15 kts 78°
2026-04-25 17:58 54.08535 -4.62040 8 ft 15 kts 78°
2026-04-25 17:59 54.08539 -4.62004 8 ft 0 kts 77°
2026-04-25 18:03 54.08540 -4.62001 8 ft 1 kts 77°
2026-04-25 18:03 54.08552 -4.61905 8 ft 11 kts 78°
2026-04-25 18:04 54.08570 -4.61755 8 ft 12 kts 78°
2026-04-25 18:04 54.08589 -4.61593 8 ft 13 kts 79°
2026-04-25 18:04 54.08612 -4.61419 8 ft 14 kts 78°
2026-04-25 18:04 54.08635 -4.61234 8 ft 15 kts 78°
2026-04-25 18:05 54.08659 -4.61042 8 ft 15 kts 77°
2026-04-25 18:05 54.08658 -4.60848 8 ft 15 kts 123°
2026-04-25 18:05 54.08574 -4.60771 8 ft 7 kts 168°
2026-04-25 18:05 54.08538 -4.60762 8 ft 2 kts 192°
2026-04-25 18:06 54.08532 -4.60775 8 ft 0 kts 255°
2026-04-25 18:06 54.08514 -4.60894 8 ft 38 kts 257°
2026-04-25 18:06 54.08395 -4.61848 9 ft 113 kts 257°
2026-04-25 18:06 54.08184 -4.63533 274 ft 143 kts 255°
2026-04-25 18:07 54.07949 -4.65216 904 ft 141 kts 255°
2026-04-25 18:07 54.07710 -4.66913 1503 ft 143 kts 255°
2026-04-25 18:07 54.07353 -4.68575 2003 ft 147 kts 227°
2026-04-25 18:07 54.06390 -4.69301 2436 ft 151 kts 175°
2026-04-25 18:08 54.05335 -4.68664 2895 ft 159 kts 153°
2026-04-25 18:08 54.04268 -4.67728 3327 ft 173 kts 151°
2026-04-25 18:08 54.03093 -4.66649 3700 ft 194 kts 152°
2026-04-25 18:08 54.01782 -4.65496 4142 ft 214 kts 153°
2026-04-25 18:09 54.00314 -4.64254 4590 ft 237 kts 153°
2026-04-25 18:09 53.98710 -4.62925 5161 ft 256 kts 154°
2026-04-25 18:09 53.96975 -4.61501 5794 ft 273 kts 154°
2026-04-25 18:09 53.96382 -4.61005 6076 ft 276 kts 152°
2026-04-25 18:10 53.93893 -4.57284 7635 ft 282 kts 126°
2026-04-25 18:10 53.92746 -4.54475 8600 ft 286 kts 124°
2026-04-25 18:10 53.91609 -4.51581 9512 ft 289 kts 124°
2026-04-25 18:10 53.90433 -4.48615 10398 ft 293 kts 124°
2026-04-25 18:11 53.89238 -4.45644 10962 ft 309 kts 125°
2026-04-25 18:11 53.87964 -4.42504 11393 ft 327 kts 125°
2026-04-25 18:11 53.86624 -4.39215 12049 ft 337 kts 125°
2026-04-25 18:11 53.85265 -4.35884 12877 ft 341 kts 125°
2026-04-25 18:12 53.83897 -4.32534 13668 ft 344 kts 126°
2026-04-25 18:12 53.82509 -4.29139 14442 ft 349 kts 126°
2026-04-25 18:12 53.81103 -4.25705 14944 ft 353 kts 126°
2026-04-25 18:12 53.79691 -4.22258 15164 ft 355 kts 126°
2026-04-25 18:13 53.78268 -4.18791 15176 ft 355 kts 126°
2026-04-25 18:13 53.76843 -4.15322 15177 ft 355 kts 126°
2026-04-25 18:13 53.75420 -4.11866 15157 ft 355 kts 126°
2026-04-25 18:14 53.72590 -4.05004 15177 ft 355 kts 126°
2026-04-25 18:14 53.71169 -4.01565 15186 ft 355 kts 126°
2026-04-25 18:14 53.69757 -3.98134 15168 ft 355 kts 124°
2026-04-25 18:14 53.68490 -3.94579 15163 ft 356 kts 119°
2026-04-25 18:15 53.67424 -3.90809 15180 ft 357 kts 113°
2026-04-25 18:15 53.66478 -3.86894 15171 ft 357 kts 112°
2026-04-25 18:15 53.65572 -3.83038 15162 ft 357 kts 112°
2026-04-25 18:15 53.64649 -3.79126 15172 ft 357 kts 112°
2026-04-25 18:16 53.63731 -3.75268 15185 ft 357 kts 112°
2026-04-25 18:16 53.62808 -3.71409 15165 ft 357 kts 112°
2026-04-25 18:16 53.60575 -3.63980 15178 ft 356 kts 123°
2026-04-25 18:17 53.59185 -3.60557 15181 ft 355 kts 126°
2026-04-25 18:17 53.57752 -3.57159 15167 ft 355 kts 126°
2026-04-25 18:17 53.56306 -3.53754 15182 ft 356 kts 126°
2026-04-25 18:17 53.54881 -3.50392 15164 ft 356 kts 126°
2026-04-25 18:18 53.53456 -3.47026 15188 ft 356 kts 126°
2026-04-25 18:18 53.52012 -3.43615 15187 ft 356 kts 126°
2026-04-25 18:18 53.50575 -3.40222 15161 ft 356 kts 126°
2026-04-25 18:18 53.49161 -3.36865 15165 ft 356 kts 123°
2026-04-25 18:19 53.48117 -3.33131 14841 ft 355 kts 103°
2026-04-25 18:19 53.48023 -3.29004 13870 ft 357 kts 81°
2026-04-25 18:19 53.48522 -3.24965 12811 ft 357 kts 76°
2026-04-25 18:19 53.49082 -3.20956 11910 ft 353 kts 77°
2026-04-25 18:20 53.49586 -3.16937 11027 ft 348 kts 79°
2026-04-25 18:20 53.50023 -3.12987 10535 ft 331 kts 80°
2026-04-25 18:20 53.50395 -3.09300 10349 ft 307 kts 81°
2026-04-25 18:20 53.50690 -3.05867 10226 ft 292 kts 85°
2026-04-25 18:21 53.50772 -3.02451 10109 ft 293 kts 89°
2026-04-25 18:21 53.50787 -2.99066 9997 ft 292 kts 90°
2026-04-25 18:21 53.50789 -2.95639 9853 ft 291 kts 90°
2026-04-25 18:21 53.50784 -2.92254 9680 ft 291 kts 90°
2026-04-25 18:22 53.50773 -2.88882 9481 ft 289 kts 90°
2026-04-25 18:22 53.50768 -2.87730 9411 ft 288 kts 90°
2026-04-25 18:22 53.50738 -2.82125 9085 ft 287 kts 90°
2026-04-25 18:22 53.50718 -2.78792 8884 ft 286 kts 90°
2026-04-25 18:23 53.50695 -2.75461 8601 ft 286 kts 90°
2026-04-25 18:23 53.50671 -2.72119 8320 ft 284 kts 90°
2026-04-25 18:23 53.50647 -2.68786 7996 ft 283 kts 90°
2026-04-25 18:23 53.50624 -2.65503 7707 ft 281 kts 90°
2026-04-25 18:24 53.50603 -2.62253 7535 ft 281 kts 90°
2026-04-25 18:24 53.50582 -2.58913 7347 ft 281 kts 90°
2026-04-25 18:24 53.50559 -2.55607 7102 ft 280 kts 90°
2026-04-25 18:24 53.50532 -2.52343 6981 ft 279 kts 90°
2026-04-25 18:25 53.50500 -2.49057 6823 ft 278 kts 90°
2026-04-25 18:25 53.50467 -2.45823 6644 ft 278 kts 90°
2026-04-25 18:25 53.50433 -2.42547 6444 ft 277 kts 90°
2026-04-25 18:25 53.50396 -2.39322 6263 ft 276 kts 90°
2026-04-25 18:26 53.50362 -2.36123 6032 ft 274 kts 90°
2026-04-25 18:26 53.50326 -2.32921 5800 ft 272 kts 90°
2026-04-25 18:26 53.50291 -2.29791 5568 ft 271 kts 90°
2026-04-25 18:26 53.50259 -2.26623 5356 ft 270 kts 90°
2026-04-25 18:27 53.50229 -2.23506 5136 ft 269 kts 90°
2026-04-25 18:27 53.50201 -2.20370 4840 ft 267 kts 90°
2026-04-25 18:27 53.50173 -2.17272 4590 ft 265 kts 90°
2026-04-25 18:27 53.50298 -2.14169 4321 ft 264 kts 82°
2026-04-25 18:28 53.50564 -2.11168 4024 ft 261 kts 81°
2026-04-25 18:28 53.50855 -2.08225 3672 ft 250 kts 81°
2026-04-25 18:28 53.51139 -2.05441 3478 ft 234 kts 82°
2026-04-25 18:29 53.50119 -2.00474 3462 ft 232 kts 142°
2026-04-25 18:29 53.48663 -1.99456 3456 ft 225 kts 175°
2026-04-25 18:30 53.45623 -2.03845 3365 ft 196 kts 250°
2026-04-25 18:30 53.45155 -2.05976 3132 ft 195 kts 247°
2026-04-25 18:30 53.44551 -2.08014 2875 ft 194 kts 238°
2026-04-25 18:30 53.43809 -2.09897 2670 ft 188 kts 234°
2026-04-25 18:31 53.43050 -2.11625 2438 ft 183 kts 232°
2026-04-25 18:31 53.42274 -2.13264 2196 ft 177 kts 230°
2026-04-25 18:31 53.41497 -2.14859 1931 ft 172 kts 230°
2026-04-25 18:31 53.40748 -2.16391 1684 ft 167 kts 230°
2026-04-25 18:32 53.40012 -2.17904 1470 ft 166 kts 231°
2026-04-25 18:32 53.39312 -2.19351 1247 ft 153 kts 231°
2026-04-25 18:32 53.38675 -2.20666 1036 ft 140 kts 231°
2026-04-25 18:32 53.38064 -2.21929 870 ft 138 kts 231°
2026-04-25 18:33 53.37467 -2.23181 710 ft 137 kts 232°
2026-04-25 18:33 53.36869 -2.24417 547 ft 136 kts 231°
2026-04-25 18:33 53.36268 -2.25638 361 ft 135 kts 232°
2026-04-25 18:33 53.35703 -2.26817 259 ft 120 kts 231°
2026-04-25 18:34 53.35277 -2.27695 258 ft 71 kts 231°
2026-04-25 18:34 53.35046 -2.28168 258 ft 36 kts 232°
2026-04-25 18:34 53.34963 -2.28462 258 ft 18 kts 259°
2026-04-25 18:34 53.34946 -2.28624 258 ft 10 kts 262°
2026-04-25 18:35 53.34942 -2.28732 258 ft 7 kts 285°
2026-04-25 18:35 53.34985 -2.28778 258 ft 9 kts
2026-04-25 18:35 53.35004 -2.28762 258 ft 0 kts 45°
2026-04-25 18:36 53.35006 -2.28760 258 ft 0 kts 45°
2026-04-25 18:36 53.35013 -2.28747 258 ft 2 kts 45°
2026-04-25 18:36 53.35029 -2.28721 258 ft 3 kts 45°
2026-04-25 18:36 53.35052 -2.28670 258 ft 9 kts 54°
2026-04-25 18:37 53.35113 -2.28545 258 ft 15 kts 51°
2026-04-25 18:37 53.35183 -2.28402 258 ft 16 kts 51°
2026-04-25 18:37 53.35256 -2.28260 258 ft 16 kts 41°
2026-04-25 18:37 53.35351 -2.28179 258 ft 14 kts 16°
2026-04-25 18:38 53.35453 -2.28148 258 ft 15 kts 14°
2026-04-25 18:38 53.35544 -2.28065 258 ft 15 kts 50°
2026-04-25 18:38 53.35613 -2.27924 258 ft 15 kts 48°
2026-04-25 18:38 53.35717 -2.27880 258 ft 16 kts
2026-04-25 18:39 53.35768 -2.27871 258 ft 0 kts
2026-04-25 18:39 53.35769 -2.27871 258 ft 0 kts
2026-04-25 18:40 53.35811 -2.27864 258 ft 14 kts
2026-04-25 18:40 53.35912 -2.27847 258 ft 15 kts
2026-04-25 18:40 53.35981 -2.27870 258 ft 8 kts 321°
2026-04-25 18:40 53.36033 -2.27955 258 ft 11 kts 316°
2026-04-25 18:41 53.36094 -2.28053 258 ft 12 kts 316°
2026-04-25 18:41 53.36157 -2.28160 258 ft 13 kts 315°
2026-04-25 18:41 53.36225 -2.28273 258 ft 14 kts 316°
2026-04-25 18:41 53.36296 -2.28391 258 ft 14 kts 315°
2026-04-25 18:42 53.36356 -2.28465 258 ft 8 kts 355°
2026-04-25 18:42 53.36377 -2.28461 258 ft 8 kts 11°
2026-04-25 18:42 53.36466 -2.28561 258 ft 10 kts 314°
2026-04-25 18:42 53.36520 -2.28654 258 ft 11 kts 315°
2026-04-25 18:43 53.36575 -2.28748 258 ft 11 kts 313°
2026-04-25 18:43 53.36638 -2.28768 258 ft 7 kts 41°
2026-04-25 18:43 53.36652 -2.28746 258 ft 12 kts 46°
2026-04-25 18:43 53.36696 -2.28729 258 ft 7 kts 314°
2026-04-25 18:44 53.36728 -2.28789 258 ft 4 kts 314°
2026-04-25 18:44 53.36736 -2.28801 258 ft 0 kts 314°